Regional Weather Roundup
Issued by NWS

Home | Current Version | Previous Version | Graphics & Text | Print | Product List | Glossary On
Versions: 1 2 3 4 5 6 7 8 9 10 11 12 13 14 15 16 17 18 19 20 21 22 23 24 25 26 27 28 29 30 31 32 33 34 35 36 37 38 39 40 41 42 43 44 45 46 47 48 49 50
134
ASUS43 KTOP 261108
RWRKS

WEATHER ROUNDUP FOR KANSAS
NATIONAL WEATHER SERVICE GOODLAND KS
500 AM CST SUN FEB 26 2017

NOTE:  "FAIR" INDICATES FEW OR NO CLOUDS BELOW 12,000 FEET WITH NO
SIGNIFICANT WEATHER AND/OR OBSTRUCTIONS TO VISIBILITY.

KSZ001>006-013>018-027>032-041>047-261200-
NORTHWEST KANSAS

CITY           SKY/WX    TMP DP  RH WIND       PRES   REMARKS
GOODLAND       CLEAR     10   5  80 W7        29.85R
HAYS           CLEAR     21  13  71 NE6       29.89R
RUSSELL        CLEAR     25  15  66 NE7       29.89R
$$

KSZ061>065-074>080-084>089-261200-
SOUTHWEST KANSAS

CITY           SKY/WX    TMP DP  RH WIND       PRES   REMARKS
DODGE CITY     PTCLDY    28  17  63 S7        29.83S
ELKHART          N/A     26   2  35 NW6         N/A
GARDEN CITY    PTCLDY    18  11  74 NW8       29.84R
GREAT BEND     PTCLDY    31  18  58 E6        29.88F
PRATT          CLOUDY    33  14  46 S15       29.87F WCI  22
$$

KSZ066>073-081>083-090>101-261200-
SOUTHEAST KANSAS

CITY           SKY/WX    TMP DP  RH WIND       PRES   REMARKS
CHANUTE        CLOUDY    37  18  46 S6        30.00S
COFFEYVILLE    CLOUDY    36  22  56 SE6       29.99F
HUTCHINSON     CLOUDY    34  21  59 SE8       29.92F
MEDICINE LODGE   N/A     32  19  58 E3        29.91F
NEWTON         CLOUDY    35  20  54 SE10      29.94F WCI  27
PARSONS        CLOUDY    38  19  46 VRB5      30.00F
WICHITA INTL   PTCLDY    34  21  59 SE8       29.94F
WICHITA JABRA  CLOUDY    36  20  52 SE9       29.95S
WICHITA MCCONL CLOUDY    35  19  50 S8        29.95S
WINFIELD       CLOUDY    35  20  54 SE5       29.97R
$$

KSZ007>012-019>026-033>040-048>060-102>105-261200-
NORTHEAST KANSAS

CITY           SKY/WX    TMP DP  RH WIND       PRES   REMARKS
CONCORDIA      CLOUDY    35  17  47 SW10      29.93R WCI  27
EMPORIA        LGT SNOW  34  30  85 SW8       30.00R FOG
LAWRENCE       CLOUDY    35  17  47 CALM      30.00S
MANHATTAN      CLOUDY    31  22  69 CALM      29.97R
MARYSVILLE     CLOUDY    32  19  59 SW5       29.94R
OLATHE IND     CLOUDY    33  16  49 S12       29.99S WCI  24
OLATHE EXE     CLOUDY    33  16  49 S8        29.99R
SALINA         CLOUDY    35  33  92 SE3       29.94F
TOPEKA BILLARD CLOUDY    39  18  42 SW8       29.99R
TOPEKA FORBES  CLOUDY    37  17  44 SW6       29.99R
$$




USA.gov is the U.S. government's official web portal to all federal, state and local government web resources and services.